Overview Statistics Trail Chart Weather Telemetry Raw packets
 

This is the latest recevied weather packets stored in our database for station/object AI5BL. If no packets are shown the sender has not sent any weather packets the latest 10 day(s).

<< 13 14 15 16 17 18 19 >>
Time Temp. Humidity Pressure Rain* Wind** Luminosity Snow
1788558313 25° C 99% 1016 hPa 6.1 mm - 26 W/m² -
1788558008 25° C 99% 1015.9 hPa 6.6 mm - 20 W/m² -
1788557706 25° C 99% 1015.9 hPa 4.83 mm - 15 W/m² -
1788557403 25.56° C 99% 1015.9 hPa 4.32 mm - 12 W/m² -
1788557103 25.56° C 99% 1015.9 hPa 3.05 mm - 11 W/m² -
1788556798 25.56° C 99% 1015.9 hPa 3.05 mm - 8 W/m² -
1788556498 25° C 99% 1015.7 hPa 3.05 mm - 10 W/m² -
1788556194 25° C 99% 1015.9 hPa 3.05 mm - 9 W/m² -
1788555892 25° C 99% 1016 hPa 4.32 mm - 9 W/m² -
1788555588 25° C 98% 1015.8 hPa 4.83 mm - 9 W/m² -
1788555284 25° C 98% 1016.2 hPa 1.78 mm - 8 W/m² -
1788554981 25° C 98% 1015.9 hPa 1.78 mm - 8 W/m² -
1788554676 25° C 98% 1016.1 hPa 1.78 mm - 8 W/m² -
1788554372 25.56° C 98% 1016.1 hPa 0 mm - 9 W/m² -
1788554069 25.56° C 98% 1016 hPa 0 mm - 9 W/m² -
1788553764 25.56° C 98% 1015.6 hPa 0 mm - 10 W/m² -
1788553460 25.56° C 98% 1015.7 hPa 1.27 mm - 12 W/m² -
1788553156 25.56° C 98% 1015.6 hPa 0 mm - 16 W/m² -
1788552851 26.11° C 98% 1015.9 hPa 0 mm - 20 W/m² -
1788552546 26.11° C 98% 1015.9 hPa 1.78 mm - 22 W/m² -
1788552245 26.11° C 98% 1016.2 hPa 3.05 mm - 22 W/m² -
1788551940 26.11° C 98% 1016.1 hPa 6.1 mm - 20 W/m² -
1788551638 26.11° C 97% 1016.4 hPa 10.67 mm - 19 W/m² -
1788551333 26.67° C 97% 1016.3 hPa 10.67 mm - 19 W/m² -
1788551032 26.67° C 97% 1016.4 hPa 6.1 mm - 22 W/m² -

* Rain latest hour (hover to see other rain measurements)
** Current wind speed in m/s (hover to see current wind gust speed)